Probability
18 18 19 19 18 20 21 18 15 14 15 12 10 8 5 4 4 7 13 17 16 15 13 11 10 8 7 6 5 5 6 6 5 4 2 1 0 0 0 0 0 0 0
16 16 16 17 18 20 20 18 15 15 16 15 12 10 8 8 7 9 12 13 13 14 13 13 11 9 9 8 5 3 4 5 5 5 3 1 0 0 1 1 0 0 0
13 13 15 16 17 17 18 18 17 16 17 15 14 15 15 13 12 11 11 10 10 11 13 13 13 13 14 13 8 5 4 4 4 4 3 1 0 0 1 1 0 0 0
11 12 14 16 15 14 15 17 17 18 18 16 17 19 18 15 12 11 11 10 10 11 13 14 14 13 15 15 12 9 6 4 4 4 3 2 1 0 1 1 0 0 0
9 10 13 14 14 13 14 17 20 21 21 18 16 15 14 12 11 9 9 10 11 11 13 14 13 11 12 15 15 11 7 5 6 5 4 3 1 1 0 0 0 0 0
7 8 11 13 13 13 14 18 21 22 21 17 11 8 8 8 9 9 9 9 10 9 11 13 13 10 10 13 12 9 6 5 6 5 4 3 3 2 1 0 0 0 0
4 6 8 11 11 10 11 14 18 18 17 13 8 5 5 6 9 11 11 10 9 8 9 12 13 10 8 7 6 5 5 4 4 3 2 2 2 2 2 1 1 0 0
3 4 6 8 7 6 7 10 13 13 11 9 7 5 5 7 11 12 11 10 9 8 8 10 11 8 5 4 4 4 4 3 3 3 2 1 1 1 2 2 2 1 0
4 4 4 5 5 5 7 9 11 10 8 7 7 6 6 8 12 13 10 9 9 8 7 8 8 7 4 3 4 3 2 2 3 4 2 0 0 1 1 2 3 3 2
4 3 3 4 5 6 6 7 8 7 7 7 7 6 6 9 12 13 11 9 9 9 8 6 6 5 3 3 3 2 1 1 2 3 2 0 0 1 1 1 2 3 3
6 4 3 3 4 4 5 5 5 6 7 8 8 7 7 8 10 13 12 10 9 9 8 6 5 4 2 1 1 1 0 0 0 1 0 0 0 0 0 0 1 1 2
9 6 4 5 4 4 3 3 4 5 6 7 8 8 7 6 7 10 11 9 7 6 6 5 4 3 2 1 0 0 0 0 0 0 0 0 0 0 0 0 0 0 0
12 9 6 6 6 5 3 3 5 6 6 6 6 7 7 6 5 7 8 7 5 4 3 2 2 3 2 0 0 0 0 0 0 0 0 0 0 0 0 0 0 0 0
11 8 6 6 6 5 2 2 4 6 6 5 5 6 6 6 6 6 6 5 4 3 2 1 1 2 2 1 0 0 0 0 0 0 0 0 0 0 0 0 0 0 0
6 4 3 4 4 3 2 1 2 4 5 4 4 5 6 6 5 4 3 2 2 2 1 0 0 1 2 1 0 0 0 0 0 0 0 0 0 0 0 0 0 0 0
1 1 1 2 2 2 1 1 1 2 3 3 3 4 4 4 2 1 1 0 1 1 1 0 0 0 1 1 0 0 0 0 0 0 0 0 0 0 0 0 0 0 0
0 0 0 1 1 1 1 0 0 0 1 2 2 3 3 2 1 0 0 0 0 0 0 0 0 0 0 0 0 0 0 0 0 0 0 0 0 0 0 0 0 0 0
0 0 0 0 0 0 0 0 0 0 0 1 1 1 2 1 0 0 0 0 0 0 0 0 0 0 0 0 0 0 0 0 0 0 0 0 0 0 0 0 0 0 0
0 0 0 0 0 0 0 0 0 0 0 0 0 0 0 0 0 0 0 0 0 0 0 0 0 0 0 0 0 0 0 0 0 0 0 0 0 0 0 0 0 0 0
0 0 0 0 0 0 0 0 0 0 0 0 0 0 0 0 0 0 0 0 0 0 0 0 0 0 0 0 0 0 0 0 0 0 0 0 0 0 0 0 0 0 0
0 0 0 0 0 0 0 0 0 0 0 0 0 0 0 0 0 0 0 0 0 0 0 0 0 0 0 0 0 0 0 0 0 0 0 0 0 0 0 0 0 0 0
0 0 0 0 0 0 0 0 0 0 0 0 0 0 0 0 0 0 0 0 0 0 0 0 0 0 0 0 0 0 0 0 0 0 0 0 0 0 0 0 0 0 0
0 0 0 0 0 0 0 0 0 0 1 0 0 0 0 0 0 0 0 0 0 0 0 0 0 0 0 0 0 0 0 0 0 0 0 0 0 0 0 0 0 0 0
0 0 0 0 0 0 0 0 0 0 0 0 0 0 0 0 0 0 0 0 0 0 0 0 0 0 0 0 0 0 0 0 0 0 0 0 0 0 0 0 0 0 0
0 0 0 0 0 0 0 0 0 0 0 0 0 0 0 0 0 0 0 0 0 0 0 0 0 0 0 0 0 0 0 0 0 0 0 0 0 0 0 0 0 0 0
0 0 0 0 1 1 1 0 0 0 0 0 0 0 0 0 0 0 0 0 0 0 0 0 0 0 0 0 0 0 0 0 0 0 0 0 0 0 0 0 0 0 0
Wind_Speed
2 2 2 2 3 3 3 3 4 3 4 4 4 3 4 5 5 4 1 4 1 2 3 4 4 5 6 6 6 7 8 9 9 9 8 8 8 8 8 9 9 9 10
2 2 2 2 3 3 3 3 4 3 3 3 3 3 3 4 4 4 3 3 4 1 1 2 3 3 4 5 6 6 7 7 7 8 7 7 7 8 8 8 9 9 10
2 2 2 2 2 2 3 4 4 3 4 3 3 3 3 3 3 3 3 2 2 5 2 1 1 1 2 3 3 4 5 6 7 7 7 7 7 7 7 7 8 8 8
2 2 2 2 2 2 2 3 4 3 3 3 2 2 1 1 2 3 2 2 2 1 3 3 2 2 2 1 1 1 3 4 5 5 5 6 6 6 6 6 7 7 7
2 2 2 2 3 2 2 3 2 3 3 2 2 1 1 1 1 2 2 1 1 2 1 4 4 3 3 2 1 0 2 3 3 3 3 4 4 4 4 5 6 6 6
2 3 1 1 2 2 2 2 3 2 2 1 1 0 0 1 1 1 1 1 1 1 0 0 2 4 5 4 4 3 1 1 2 2 3 3 2 3 3 4 5 6 7
1 2 2 1 2 2 2 3 3 3 2 1 1 1 1 1 1 1 1 1 1 0 1 2 2 1 2 4 4 4 4 2 1 2 2 2 2 3 3 4 4 5 6
1 1 2 2 2 2 2 2 2 3 2 1 2 2 2 2 2 1 1 1 1 0 1 2 2 1 1 1 4 4 4 3 3 2 2 1 1 2 2 3 4 5 6
2 2 2 3 2 3 2 3 2 3 3 2 2 3 3 2 1 2 1 1 1 0 0 1 1 1 1 1 2 4 5 4 3 2 2 2 1 1 1 2 3 4 5
2 2 2 3 3 3 3 3 2 3 4 3 2 2 3 2 2 2 2 2 1 0 0 0 0 1 1 1 3 6 6 5 4 4 3 3 3 2 2 1 1 2 4
2 3 3 3 3 2 3 3 3 4 3 3 2 2 2 2 2 2 2 2 1 0 0 0 1 1 2 2 2 5 6 5 5 5 5 4 3 3 3 2 1 0 2
1 3 2 2 3 2 2 2 3 3 3 3 3 2 2 2 2 2 2 2 2 1 0 1 0 1 1 1 3 5 5 5 5 5 5 5 4 3 3 3 2 1 1
2 2 2 2 2 2 3 3 2 3 3 3 3 3 2 2 2 2 2 2 2 1 1 1 0 0 1 1 3 3 4 4 4 4 4 5 4 4 4 4 4 3 3
2 3 2 2 2 2 3 3 2 2 2 3 3 2 2 2 2 2 2 2 2 2 2 1 1 1 1 1 3 2 3 4 3 3 4 4 4 4 4 4 4 4 4
2 2 3 3 3 3 3 3 2 3 3 3 2 1 1 1 2 2 2 3 3 3 2 3 2 2 2 1 2 2 2 4 2 2 2 3 3 3 4 4 4 4 4
3 3 3 3 3 3 3 3 2 3 2 2 2 2 2 1 1 2 2 3 3 3 1 2 1 2 1 2 2 2 2 5 3 2 1 1 2 2 3 3 4 4 4
2 2 3 3 3 3 3 3 3 3 2 2 2 1 2 2 2 1 2 2 2 2 1 1 0 1 2 2 2 2 3 3 4 5 2 1 0 1 1 2 3 3 4
2 2 3 3 3 3 3 3 3 3 3 3 2 2 2 1 1 2 1 1 1 1 2 2 1 2 2 3 2 3 2 2 2 6 4 3 2 1 1 1 1 2 3
2 2 2 3 3 3 3 3 3 2 3 3 3 2 2 2 1 1 1 1 1 1 1 2 2 1 1 2 2 2 2 1 2 5 6 6 5 3 2 2 1 2 2
2 2 3 3 3 3 3 3 2 2 2 2 2 2 3 3 2 2 1 1 1 1 2 2 2 2 2 2 2 2 2 2 2 2 2 3 5 6 6 4 3 2 2
2 2 2 2 3 3 4 5 3 2 2 2 2 2 3 3 4 3 2 1 1 2 1 2 2 2 2 2 2 3 2 2 2 2 2 2 4 4 5 7 6 4 3
2 2 2 2 3 4 5 6 6 2 2 2 2 2 1 1 1 1 1 1 2 2 1 2 2 2 2 2 2 3 2 2 2 1 2 2 2 2 2 2 5 4 4
2 2 2 2 3 4 4 5 6 4 2 2 2 2 2 3 1 1 2 3 2 1 2 3 2 1 2 2 3 3 2 3 2 0 2 2 2 2 2 3 7 5 4
2 2 2 2 2 3 3 4 6 3 1 1 1 2 2 3 3 3 2 1 1 2 2 3 2 3 2 3 3 4 3 3 4 3 3 3 2 2 2 2 8 8 7
2 2 2 2 2 3 3 4 7 3 1 1 2 3 3 2 4 3 2 1 0 1 3 3 3 3 3 4 4 4 3 4 3 2 2 3 3 3 3 4 6 11 10
1 1 2 2 2 3 4 4 6 3 2 2 1 1 3 3 3 4 3 2 1 1 1 2 3 5 6 5 6 5 4 4 3 2 1 3 3 3 3 3 3 5 7
Wind_Direction
244 249 255 262 267 266 245 248 255 256 258 255 253 250 271 278 273 269 155 127 161 263 264 255 238 226 221 217 218 221 226 231 233 231 231 231 231 232 229 229 225 219 215
263 263 260 266 271 274 285 275 264 261 257 258 256 255 259 269 272 265 256 164 156 191 257 266 243 227 218 213 217 224 229 232 233 232 230 230 231 231 229 227 225 220 216
292 277 269 262 275 279 272 266 265 259 247 239 242 250 252 266 269 262 259 267 201 168 167 190 215 200 195 198 212 223 228 228 229 230 231 228 227 229 230 227 222 216 213
300 283 287 284 284 269 268 268 264 264 261 257 251 259 250 239 254 266 261 257 282 269 153 131 114 116 117 140 186 217 230 227 226 231 234 234 233 232 227 222 220 215 211
322 302 303 312 282 274 274 280 283 277 269 257 242 230 255 280 271 268 278 283 275 290 280 134 127 103 84 66 46 262 248 245 236 226 238 239 234 235 235 228 222 213 210
336 313 297 319 291 284 292 304 302 288 279 263 267 317 269 273 265 251 257 232 254 252 266 50 145 124 101 66 40 25 337 269 256 233 239 249 237 238 237 228 226 219 216
351 321 322 322 304 316 316 303 287 277 267 229 245 248 221 203 228 238 247 239 125 82 71 58 49 17 115 106 63 35 15 340 309 284 253 258 258 252 245 237 232 224 220
4 358 354 334 345 318 313 310 296 287 281 255 267 256 232 203 197 201 183 150 128 98 85 81 80 68 12 30 78 55 25 20 16 6 3 334 284 267 252 243 240 230 222
50 19 11 2 349 329 344 324 305 286 288 269 258 273 271 245 164 164 157 155 165 113 95 72 86 64 42 37 43 62 39 24 13 19 23 22 28 19 285 258 246 231 224
52 39 25 13 349 342 345 321 335 295 282 280 265 269 289 297 248 179 174 171 157 168 35 304 74 85 53 57 72 56 46 38 35 44 53 51 51 39 12 342 267 231 230
55 41 24 3 344 347 359 342 326 304 292 293 286 273 273 253 252 237 198 185 183 180 39 339 30 37 44 53 52 61 58 55 49 43 46 49 48 39 31 26 13 289 257
42 43 23 357 339 348 349 325 309 306 309 302 292 283 274 264 247 242 223 201 185 149 107 42 39 49 53 68 74 72 66 61 55 48 43 45 47 39 26 18 8 341 296
24 27 360 338 344 342 337 326 313 316 304 296 289 288 281 277 283 265 238 210 190 169 169 184 197 170 122 103 100 94 94 73 57 48 42 38 44 44 33 22 17 4 351
22 8 346 342 349 347 336 328 316 320 315 304 297 293 285 292 286 270 265 237 207 189 179 181 198 175 139 156 99 230 118 101 73 48 38 34 37 37 34 24 21 13 11
17 10 357 356 357 355 344 329 348 343 343 333 334 329 302 290 277 274 260 250 246 229 196 178 188 172 193 164 158 219 136 114 111 77 49 37 33 33 33 24 20 15 9
17 10 13 4 357 358 349 336 346 9 0 359 349 347 327 304 286 268 256 253 259 260 230 169 189 171 179 187 178 208 149 147 164 144 105 56 37 35 32 25 17 10 7
2 3 2 355 354 357 0 351 358 3 353 348 338 343 336 320 299 266 249 252 255 257 221 147 151 149 194 223 194 215 199 206 152 155 161 163 92 43 27 21 13 7 5
354 5 355 350 354 2 358 346 355 7 357 347 342 339 337 330 318 301 277 248 245 268 227 185 188 188 202 210 212 232 219 215 178 147 176 203 218 220 248 308 351 355 354
3 359 356 354 351 353 356 355 359 2 355 355 352 350 340 332 315 319 285 258 223 220 230 205 189 186 200 196 215 220 211 224 228 162 187 201 207 214 223 240 270 308 331
9 12 358 351 348 350 352 349 341 356 359 5 10 360 352 339 332 312 276 255 239 230 215 210 186 174 172 187 226 217 204 206 238 207 188 195 191 204 213 220 231 249 271
9 9 357 357 359 359 9 352 331 342 354 4 14 6 21 16 360 332 321 314 247 239 213 199 183 178 176 192 220 229 231 212 203 233 239 211 193 206 197 201 207 215 235
10 353 355 6 11 23 22 352 327 330 346 357 360 359 57 147 106 195 302 325 308 261 242 222 202 201 198 216 230 238 238 238 225 176 258 252 224 230 223 201 145 172 218
22 11 11 19 28 41 17 349 333 324 348 359 354 342 356 45 334 43 117 187 194 221 246 261 243 255 242 238 244 242 253 277 293 281 257 268 244 237 229 149 152 187 214
18 1 11 17 27 46 18 346 328 299 347 8 0 351 357 10 30 1 344 28 115 149 205 233 256 263 276 276 255 254 255 248 241 225 235 266 268 263 254 198 171 194 211
358 340 18 10 15 41 21 347 323 313 30 18 21 21 360 5 43 345 305 327 37 144 168 201 262 274 287 282 276 258 247 249 257 223 207 260 271 277 262 237 187 190 208
348 337 16 6 10 21 27 355 330 315 357 348 27 64 72 28 19 336 295 284 277 288 257 206 219 224 228 218 220 246 268 276 280 264 159 262 279 279 269 232 222 198 213